FW0246 Weather Reports


time (UTC)temp
C
wind
direction
speed
KPH
gust
KPH
rain 1hr
cm
rain 24hr
cm
rain mn
cm
humidity
%
barometer
mb
20260502231803 10 0 0.0 0.0 0.00 0.00 0.00 87 1015.3
20260502230903 10 0 0.0 0.0 0.00 0.00 0.00 87 1015.4
20260502230003 10 0 0.0 0.0 0.00 0.00 0.00 86 1015.4
20260502225403 11 0 0.0 0.0 0.00 0.00 0.00 86 1015.4
20260502224503 11 0 0.0 0.0 0.00 0.00 0.00 86 1015.5
20260502223603 11 0 0.0 0.0 0.00 0.00 0.00 86 1015.4
20260502222703 11 0 0.0 0.0 0.00 0.00 0.00 85 1015.5
20260502221803 11 0 0.0 0.0 0.00 0.00 0.00 84 1015.6
20260502221122 11 0 0.0 0.0 0.00 0.00 0.00 84 1015.5
20260502220003 11 0 0.0 0.0 0.00 0.00 0.00 83 1015.5
20260502215403 11 0 0.0 0.0 0.00 0.00 0.00 83 1015.6
20260502212703 12 0 0.0 0.0 0.00 0.00 0.00 81 1015.5
20260502211803 12 0 0.0 0.0 0.00 0.00 0.00 81 1015.6
20260502210903 12 0 0.0 0.0 0.00 0.00 0.00 80 1015.5
20260502210003 12 0 0.0 0.0 0.00 0.00 0.00 79 1015.6
20260502205403 12 0 0.0 0.0 0.00 0.00 0.00 79 1015.5
20260502204503 13 0 0.0 0.0 0.00 0.00 0.00 78 1015.6
20260502203603 13 0 0.0 0.0 0.00 0.00 0.00 78 1015.6
20260502202703 13 0 0.0 0.0 0.00 0.00 0.00 77 1015.6
20260502201803 13 0 0.0 0.0 0.00 0.00 0.00 76 1015.6
20260502200903 13 0 0.0 0.0 0.00 0.00 0.00 75 1015.6
20260502200220 14 0 0.0 0.0 0.00 0.00 0.00 75 1015.6
20260502195404 14 198 0.0 1.6 0.00 0.00 0.00 74 1015.5
20260502194717 15 0 0.0 0.0 0.00 0.00 0.00 74 1015.6
20260502192703 15 0 0.0 0.0 0.00 0.00 0.00 71 1015.5
20260502191804 16 198 0.0 1.6 0.00 0.00 0.00 71 1015.4
20260502190903 16 198 0.0 1.6 0.00 0.00 0.00 70 1015.3
20260502190003 17 0 0.0 0.0 0.00 0.00 0.00 69 1015.3
20260502185403 17 0 0.0 0.0 0.00 0.00 0.00 67 1015.3
20260502184503 18 0 0.0 0.0 0.00 0.00 0.00 66 1015.3
20260502183603 18 0 0.0 0.0 0.00 0.00 0.00 64 1015.3
20260502182703 18 0 0.0 0.0 0.00 0.00 0.00 62 1015.2
20260502182019 19 0 0.0 0.0 0.00 0.00 0.00 62 1015.3
20260502180903 20 0 0.0 0.0 0.00 0.00 0.00 62 1015.3
20260502170217 22 0 0.0 0.0 0.00 0.00 0.00 53 1015.3
20260502163603 23 216 1.6 6.4 0.00 0.00 0.00 49 1015.6
20260502162919 23 207 0.0 4.8 0.00 0.00 0.00 50 1015.5
20260502161803 23 191 1.6 6.4 0.00 0.00 0.00 51 1015.7
20260502160903 23 219 1.6 8.0 0.00 0.00 0.00 52 1015.8
20260502151803 25 216 3.2 12.9 0.00 0.00 0.00 52 1016.1
20260502151117 26 201 3.2 12.9 0.00 0.00 0.00 49 1016.2
20260502123603 27 208 1.6 4.8 0.00 0.00 0.00 50 1018.2
20260502122703 26 210 1.6 8.0 0.00 0.00 0.00 47 1018.4
20260502121803 26 252 1.6 6.4 0.00 0.00 0.00 46 1018.5
20260502120903 26 203 3.2 11.3 0.00 0.00 0.00 48 1018.6
20260502120219 26 194 1.6 8.0 0.00 0.00 0.00 49 1018.7
20260502115403 26 190 3.2 8.0 0.00 0.00 0.00 46 1018.8
20260502113603 26 217 1.6 12.9 0.00 0.00 0.00 48 1019.1
20260502112703 25 236 1.6 14.5 0.00 0.00 0.00 50 1019.2
20260502111803 25 263 1.6 6.4 0.00 0.00 0.00 50 1019.4
20260502110903 25 244 1.6 6.4 0.00 0.00 0.00 54 1019.4
20260502110003 25 236 0.0 6.4 0.00 0.00 0.00 53 1019.5
20260502105403 24 263 1.6 9.7 0.00 0.00 0.00 54 1019.6
20260502104503 24 242 1.6 9.7 0.00 0.00 0.00 55 1019.7
20260502103603 23 244 0.0 6.4 0.00 0.00 0.00 56 1019.8
20260502102916 23 251 1.6 4.8 0.00 0.00 0.00 54 1020.0
20260502102016 23 243 0.0 6.4 0.00 0.00 0.00 56 1020.1
20260502100903 22 270 0.0 4.8 0.00 0.00 0.00 58 1020.2
20260502100219 21 262 0.0 4.8 0.00 0.00 0.00 60 1020.3
20260502090903 17 0 0.0 0.0 0.00 0.00 0.00 73 1020.9
20260502070903 11 216 0.0 1.6 0.00 0.00 0.00 78 1021.4
20260502070003 11 209 0.0 3.2 0.00 0.00 0.00 77 1021.6
20260502065403 11 209 1.6 3.2 0.00 0.00 0.00 78 1021.6
20260502064503 11 0 0.0 0.0 0.00 0.00 0.00 79 1021.5
20260502063820 10 208 0.0 3.2 0.00 0.00 0.00 79 1021.6
20260502062703 10 207 0.0 3.2 0.00 0.00 0.00 82 1021.7
20260502061803 9 206 0.0 1.6 0.00 0.00 0.00 85 1021.8
20260502060903 8 206 0.0 3.2 0.00 0.00 0.00 86 1021.9
20260502060004 7 206 0.0 1.6 0.00 0.00 0.00 86 1022.1
20260502055617 7 206 0.0 1.6 0.00 0.00 0.00 87 1022.1
20260502054716 7 0 0.0 0.0 0.00 0.00 0.00 89 1022.3
20260502053604 6 206 0.0 3.2 0.00 0.00 0.00 90 1022.5
20260502052703 6 206 0.0 3.2 0.00 0.00 0.00 93 1022.4
20260502051803 5 206 0.0 1.6 0.00 0.00 0.00 94 1022.1
20260502050903 5 206 0.0 1.6 0.00 0.00 0.00 93 1022.0
20260502050003 4 0 0.0 0.0 0.00 0.00 0.00 93 1022.0
20260502045403 4 0 0.0 0.0 0.00 0.00 0.00 92 1021.9
20260502044503 4 0 0.0 0.0 0.00 0.00 0.00 92 1022.0
20260502043603 4 0 0.0 0.0 0.00 0.00 0.00 91 1021.8
20260502042703 3 0 0.0 0.0 0.00 0.00 0.00 91 1021.9
20260502042018 3 206 0.0 1.6 0.00 0.00 0.00 91 1021.8
20260502040903 3 206 0.0 1.6 0.00 0.00 0.00 91 1021.9
20260502040003 4 0 0.0 0.0 0.00 0.00 0.00 90 1021.7
20260502035403 4 0 0.0 0.0 0.00 0.00 0.00 91 1021.7
20260502034719 4 0 0.0 0.0 0.00 0.00 0.00 91 1021.8
20260502033603 4 206 0.0 1.6 0.00 0.00 0.00 90 1022.2
20260502032703 4 166 0.0 1.6 0.00 0.00 0.00 91 1022.2
20260502031803 4 190 0.0 1.6 0.00 0.00 0.00 90 1022.4
20260502030903 4 0 0.0 0.0 0.00 0.00 0.00 90 1022.0
20260502030003 4 0 0.0 0.0 0.00 0.00 0.00 89 1021.9
20260502025403 4 0 0.0 0.0 0.00 0.00 0.00 89 1021.9
20260502024503 4 0 0.0 0.0 0.00 0.00 0.00 89 1022.0
20260502023818 4 0 0.0 0.0 0.00 0.00 0.00 89 1022.1
20260502022703 4 0 0.0 0.0 0.00 0.00 0.00 89 1022.1
20260502021803 4 0 0.0 0.0 0.00 0.00 0.00 89 1022.0
20260502020903 4 0 0.0 0.0 0.00 0.00 0.00 88 1022.1
20260502020003 4 0 0.0 0.0 0.00 0.00 0.00 87 1022.2
20260502015403 4 0 0.0 0.0 0.00 0.00 0.00 87 1022.2
20260502014503 4 0 0.0 0.0 0.00 0.00 0.00 87 1022.2
20260502013603 5 0 0.0 0.0 0.00 0.00 0.00 87 1022.2
20260502012703 5 0 0.0 0.0 0.00 0.00 0.00 87 1022.2
20260502011803 5 0 0.0 0.0 0.00 0.00 0.00 86 1022.2
20260502010903 5 0 0.0 0.0 0.00 0.00 0.00 85 1022.3
20260502010003 5 0 0.0 0.0 0.00 0.00 0.00 85 1022.4
20260502005403 5 0 0.0 0.0 0.00 0.00 0.00 85 1022.4
20260502002917 5 0 0.0 0.0 0.00 0.00 0.00 84 1022.4
20260501233603 6 0 0.0 0.0 0.00 0.00 0.00 81 1022.6
20260501232703 6 0 0.0 0.0 0.00 0.00 0.00 80 1022.8